Station CMTI2 - 9087044 - Calumet Harbor, IL Image indicating link to RSS feed of recent meteorological observations for station CMTI2


Conditions at CMTI2 as of
(7:48 am CDT)
1248 GMT on 07/20/2024:
     

Click on the graph icon in the table below to see a time series plot of the last five days of that observation.

5-day plot - Wind Direction Wind Direction (WDIR): SW ( 220 deg true )
5-day plot - Wind Speed Wind Speed (WSPD): 1.9 kts
5-day plot - Wind Gust Wind Gust (GST): 2.9 kts
5-day plot - Atmospheric Pressure Atmospheric Pressure (PRES):30.11 in
5-day plot - Air Temperature Air Temperature (ATMP): 68.7 °F
5-day plot - Dew Point Dew Point (DEWP): 59.2 °F
5-day plot - Wind Speed at 10 Meters Wind Speed at 10 meters (WSPD10M): 1.9 kts
5-day plot - Wind Speed at 20 Meters Wind Speed at 20 meters (WSPD20M): 1.9 kts
5-day plot -  Wind Speed, Wind Gust and Atmospheric Pressure Combined plot of Wind Speed, Gust, and Air Pressure
NOS Water Level Observation Network Water Level
Previous observations
TIME
(CDT)
5-day plot - Wind Direction
WDIR
 
5-day plot - Wind Speed
WSPD
kts
5-day plot - Wind Gust
GST
kts
5-day plot - Wave Height
WVHT
ft
5-day plot - Dominant Wave Period
DPD
sec
5-day plot - Average Wave Period
APD
sec
5-day plot - Mean Wave Direction
MWD
 
5-day plot - Atmospheric Pressure
PRES
in
5-day plot - Pressure Tendency
PTDY
in
5-day plot - Air Temperature
ATMP
°F
5-day plot - Water Temperature
WTMP
°F
5-day plot - Dew Point
DEWP
°F
5-day plot - Salinity
SAL
psu
5-day plot - Visibility
VIS
nmi
5-day plot - Tide (above MLLW)
TIDE
ft
2024-07-20 07:42 amSSW 1.9 4.1----30.11- 68.5- 58.6---
2024-07-20 07:36 am SW 2.9 4.1----30.11- 68.4- 58.3---
2024-07-20 07:30 amSSW 1.0 1.9----30.11- 68.7- 59.4---
2024-07-20 07:24 am SW 1.9 1.9----30.11- 68.5- 59.2---
2024-07-20 07:18 amSSW 1.9 4.1----30.11-------
2024-07-20 07:12 amWSW 1.9 5.1----30.11-------
2024-07-20 07:06 am SW 1.9 5.1----30.10-------
2024-07-20 07:00 amWSW 2.9 5.1----30.10+0.02 67.1- 58.3---
2024-07-20 06:54 amWSW 2.9 4.1----30.10- 66.4- 58.1---
2024-07-20 06:48 amWSW 2.9 5.1----30.10-------
2024-07-20 06:42 amWSW 2.9 4.1----30.10-------
2024-07-20 06:36 am SW 1.9 4.1----30.09-------
2024-07-20 06:30 am SW 2.9 4.1----30.09- 65.8- 58.1---
2024-07-20 06:24 am SW 1.9 2.9----30.09- 65.7- 58.1---
2024-07-20 06:18 am SW 2.9 4.1----30.09- 65.5- 57.9---
2024-07-20 06:12 am SW 1.9 2.9----30.09- 65.1- 57.9---
2024-07-20 06:06 am SW 1.9 2.9----30.09- 64.8- 57.7---
2024-07-20 06:00 am-------30.09+0.00 64.4- 57.6---
2024-07-20 05:54 am-------30.09- 64.8- 57.7---
2024-07-20 05:48 am SW 1.9 2.9----30.09-------
2024-07-20 05:42 am SW 2.9 4.1----30.09-------
2024-07-20 05:36 am SW 2.9 2.9----30.09-------
2024-07-20 05:30 am-------30.09- 64.8- 57.4---
2024-07-20 05:24 am-------30.09- 64.8- 57.4---
2024-07-20 05:18 am SW 2.9 4.1----30.09- 65.1- 57.6---
2024-07-20 05:12 amSSW 1.9 2.9----30.08- 65.1- 57.6---
2024-07-20 05:06 am SW 1.9 2.9----30.08- 64.9- 57.2---
2024-07-20 05:00 am SW 1.9 2.9----30.08-0.02 64.8- 57.0---
2024-07-20 04:54 am SW 1.9 4.1----30.08- 65.1- 57.4---
2024-07-20 04:48 am SW 2.9 4.1----30.08- 65.1- 57.4---
2024-07-20 04:42 am SW 2.9 5.1----30.08- 65.3- 57.4---
2024-07-20 04:36 am SW 2.9 4.1----30.08- 65.5- 57.6---
2024-07-20 04:30 amWSW 2.9 4.1----30.08- 65.3- 57.7---
2024-07-20 04:24 amWSW 2.9 2.9----30.08- 64.9- 57.7---
2024-07-20 04:18 am SW 1.9 2.9----30.08- 65.5- 58.3---
2024-07-20 04:12 am SW 1.9 2.9----30.08- 65.5- 58.5---
2024-07-20 04:06 am SW 1.9 2.9----30.08- 65.3- 58.5---
2024-07-20 04:00 am SW 1.9 2.9----30.08-0.02 65.8- 59.0---
2024-07-20 03:54 amSSW 1.9 2.9----30.08- 66.0- 59.5---
2024-07-20 03:48 am S 1.9 1.9----30.08-------
2024-07-20 03:42 am SW 1.9 1.9----30.08-------
2024-07-20 03:36 amWSW 1.0 2.9----30.09-------
2024-07-20 03:30 am SW 2.9 2.9----30.09- 66.6- 57.9---
2024-07-20 03:24 am SW 2.9 4.1----30.09- 66.7- 57.9---
2024-07-20 03:18 amWSW 1.9 4.1----30.09-------
2024-07-20 03:12 am SW 2.9 5.1----30.09-------
2024-07-20 03:06 am SW 2.9 4.1----30.09-------
2024-07-20 03:00 am SW 1.9 2.9----30.09-0.01 66.9- 59.2---
2024-07-20 02:54 amSSW 1.9 1.9----30.09- 66.4- 58.6---
2024-07-20 02:48 am SW 1.0 1.9----30.09-------
2024-07-20 02:42 amSSW 1.0 1.9----30.09-------
2024-07-20 02:36 amSSW 1.0 2.9----30.09-------
2024-07-20 02:30 amSSW 1.9 2.9----30.09- 67.5- 60.1---
2024-07-20 02:24 amSSW 1.9 4.1----30.10- 67.6- 59.4---
2024-07-20 02:18 am-------30.10- 67.6- 59.2---
2024-07-20 02:12 am-------30.10- 67.6- 59.2---
2024-07-20 02:06 am-------30.10- 67.8- 59.2---
2024-07-20 02:00 amSSW 2.9 4.1----30.10+0.00 67.6- 59.4---
2024-07-20 01:54 amSSW 4.1 5.1----30.10- 68.0- 59.5---
2024-07-20 01:48 am-------30.10- 68.2- 59.0---
2024-07-20 01:42 am-------30.10- 68.2- 59.2---
2024-07-20 01:36 am-------30.11- 68.2- 59.9---
2024-07-20 01:30 amWSW 1.9 2.9----30.11- 68.0- 60.8---
2024-07-20 01:24 am SW 1.9 2.9----30.11- 68.0- 61.0---
2024-07-20 01:18 amSSW 1.0 1.9----30.10-------
2024-07-20 01:12 amWSW 1.0 1.9----30.10- 67.6- 60.3---
2024-07-20 01:06 am- 0.0 1.9----30.10- 67.8- 60.4---
2024-07-20 01:00 amSSW 1.0 1.9----30.10+0.00 68.2- 60.4---
2024-07-20 12:54 am SW 1.0 1.9----30.11- 67.8- 59.9---
2024-07-20 12:48 am SW 1.0 1.9----30.11- 67.8- 60.1---
2024-07-20 12:42 am- 0.0 1.0----30.10- 67.5- 60.4---
2024-07-20 12:36 am- 0.0 1.0----30.10- 67.8- 61.3---
2024-07-20 12:30 am- 0.0 1.0----30.10- 67.8- 61.2---
2024-07-20 12:24 am S 1.0 1.9----30.10- 68.2- 61.5---
2024-07-20 12:18 am- 0.0 0.0----30.10- 67.8- 60.6---
2024-07-20 12:12 am- 0.0 0.0----30.10- 68.2- 60.6---
2024-07-20 12:06 am- 0.0 0.0----30.10- 68.5- 61.0---
2024-07-20 12:00 am- 0.0 0.0----30.10+0.00 68.2- 60.6---
2024-07-19 11:54 pm- 0.0 0.0----30.10- 67.5- 60.3---
2024-07-19 11:48 pm- 0.0 0.0----30.10-------
2024-07-19 11:42 pm- 0.0 0.0----30.10-------
2024-07-19 11:36 pm- 0.0 0.0----30.11-------
2024-07-19 11:30 pm- 0.0 0.0----30.11- 67.6- 59.7---
2024-07-19 11:24 pm- 0.0 0.0----30.11- 67.6- 59.5---
2024-07-19 11:18 pm- 0.0 0.0----30.10- 67.8-----
2024-07-19 11:12 pm- 0.0 0.0----30.10- 67.8-----
2024-07-19 11:06 pm- 0.0 0.0----30.10- 68.7-----
2024-07-19 11:00 pm- 0.0 0.0----30.10+0.01 68.9- 59.9---
2024-07-19 10:54 pm- 0.0 0.0----30.10- 68.9- 59.7---
2024-07-19 10:48 pm- 0.0 0.0----30.11-------
2024-07-19 10:42 pm- 0.0 0.0----30.11- 69.3- 59.7---
2024-07-19 10:36 pm- 0.0 0.0----30.11- 69.6- 59.4---
2024-07-19 10:30 pm- 0.0 1.9----30.11- 69.8- 59.0---
2024-07-19 10:24 pm S 1.0 1.9----30.10- 70.9- 59.4---
2024-07-19 10:18 pmSSE 1.9 2.9----30.10- 71.4- 59.9---
2024-07-19 10:12 pm S 1.9 1.9----30.10- 71.6- 60.1---
2024-07-19 10:06 pm SE 1.9 4.1----30.10- 72.1- 60.4---
2024-07-19 10:00 pm SE 2.9 4.1----30.10+0.00 72.1- 60.1---
2024-07-19 09:54 pmESE 4.1 5.1----30.10- 72.3- 60.3---
2024-07-19 09:48 pmESE 4.1 5.1----30.10-------
2024-07-19 09:42 pmESE 5.1 7.0----30.10-------
2024-07-19 09:36 pm E 5.1 7.0----30.10-------
2024-07-19 09:30 pm E 5.1 7.0----30.10- 72.5- 60.1---
2024-07-19 09:24 pm E 5.1 7.0----30.10- 72.3- 59.9---
2024-07-19 09:18 pm E 4.1 7.0----30.09-------
2024-07-19 09:12 pm E 6.0 7.0----30.09- 72.1- 60.1---
2024-07-19 09:06 pm E 4.1 8.0----30.09- 72.0- 60.4---
2024-07-19 09:00 pm E 7.0 8.9----30.09+0.00 72.3- 59.9---
2024-07-19 08:54 pm E 6.0 8.0----30.09- 72.1- 59.9---
2024-07-19 08:48 pm E 6.0 8.0----30.10- 72.1- 59.4---
2024-07-19 08:42 pm E 6.0 8.0----30.10- 72.3- 59.0---
2024-07-19 08:36 pm E 6.0 8.9----30.10- 72.3- 59.7---
2024-07-19 08:30 pm E 6.0 8.9----30.10- 72.3- 59.7---
2024-07-19 08:24 pm E 7.0 8.9----30.09- 72.3- 59.7---
2024-07-19 08:18 pm E 7.0 9.9----30.09- 72.1- 59.5---
2024-07-19 08:12 pm E 7.0 8.9----30.10- 72.3- 59.4---
2024-07-19 08:06 pm E 7.0 8.9----30.10- 72.3- 59.0---
2024-07-19 08:00 pm E 6.0 8.0----30.09-0.02 72.3- 59.2---
2024-07-19 07:54 pm E 7.0 8.9----30.09- 72.3- 59.0---
2024-07-19 07:48 pm E 8.0 8.9----30.09- 72.3- 58.3---
2024-07-19 07:42 pm E 8.0 8.9----30.10- 72.5- 57.6---
2024-07-19 07:36 pm E 8.0 9.9----30.10- 72.3- 58.1---
2024-07-19 07:30 pm E 7.0 9.9----30.09- 72.5- 58.1---
2024-07-19 07:24 pm E 8.0 9.9----30.10- 72.5- 57.6---
2024-07-19 07:18 pm E 8.0 11.1----30.09-------
2024-07-19 07:12 pm E 8.9 11.1----30.10-------
2024-07-19 07:06 pm E 8.9 11.1----30.10-------
2024-07-19 07:00 pm E 8.0 9.9----30.10-0.03 72.9- 57.9---
2024-07-19 06:54 pm E 9.9 12.0----30.09- 72.9- 56.7---
2024-07-19 06:48 pm E 9.9 12.0----30.09- 72.9- 57.0---
2024-07-19 06:42 pm E 8.9 12.0----30.09- 73.0- 56.8---
2024-07-19 06:36 pm E 9.9 13.0----30.09- 73.0- 56.8---
2024-07-19 06:30 pm E 8.0 13.0----30.09- 73.2- 56.7---
2024-07-19 06:24 pm E 11.1 15.0----30.09- 72.9- 56.8---
2024-07-19 06:18 pm E 11.1 14.0----30.08- 73.0- 56.3---
2024-07-19 06:12 pmENE 11.1 13.0----30.08- 73.2- 56.7---
2024-07-19 06:06 pmENE 11.1 13.0----30.09- 72.5- 56.8---
2024-07-19 06:00 pmENE 9.9 12.0----30.10-0.03------
2024-07-19 05:54 pm NE 11.1 12.0----30.10-------
2024-07-19 05:48 pm NE 8.9 12.0----30.10- 72.9- 57.9---
2024-07-19 05:42 pm NE 8.9 12.0----30.10- 72.9- 57.6---
2024-07-19 05:36 pm NE 9.9 12.0----30.10- 73.0- 58.5---
2024-07-19 05:30 pm NE 9.9 12.0----30.10-------
2024-07-19 05:24 pm NE 11.1 13.0----30.10-------
2024-07-19 05:18 pm NE 9.9 12.0----30.11-------
2024-07-19 05:12 pm NE 9.9 12.0----30.11-------
2024-07-19 05:06 pm NE 11.1 12.0----30.11-------
2024-07-19 05:00 pm NE 8.0 11.1----30.11-0.04 73.4- 56.8---
2024-07-19 04:54 pm NE 8.9 11.1----30.11- 73.4- 57.9---
2024-07-19 04:48 pm NE 8.9 12.0----30.11- 73.2- 58.1---
2024-07-19 04:42 pm NE 9.9 12.0----30.11- 73.2- 57.2---
2024-07-19 04:36 pm NE 9.9 12.0----30.11- 73.4- 56.5---
2024-07-19 04:30 pm NE 9.9 11.1----30.12- 73.2- 56.8---
2024-07-19 04:24 pm NE 8.9 12.0----30.12- 73.2- 57.0---
2024-07-19 04:18 pm NE 8.9 12.0----30.11- 73.2- 57.7---
2024-07-19 04:12 pm NE 9.9 12.0----30.11- 72.9- 57.7---
2024-07-19 04:06 pm NE 11.1 12.0----30.12- 73.0- 57.0---
2024-07-19 04:00 pm NE 9.9 12.0----30.12-0.04 73.0- 57.6---
2024-07-19 03:54 pm NE 8.9 12.0----30.12- 73.0- 57.7---
2024-07-19 03:48 pm NE 8.9 11.1----30.13-------
2024-07-19 03:42 pmENE 9.9 11.1----30.13-------
2024-07-19 03:36 pm NE 9.9 11.1----30.13-------
2024-07-19 03:30 pmENE 8.9 11.1----30.13- 72.9- 57.0---
2024-07-19 03:24 pm NE 9.9 12.0----30.13- 73.0- 57.6---
2024-07-19 03:18 pm NE 9.9 12.0----30.12- 72.7- 57.9---
2024-07-19 03:12 pmENE 9.9 12.0----30.13- 72.3- 57.7---
2024-07-19 03:06 pm NE 8.9 12.0----30.13- 73.0- 58.3---
2024-07-19 03:00 pmENE 8.9 12.0----30.13-0.04 72.9- 57.9---
2024-07-19 02:54 pm NE 9.9 12.0----30.13- 73.0- 58.3---
2024-07-19 02:48 pmENE 8.9 12.0----30.13- 71.8- 56.8---
2024-07-19 02:42 pmENE 9.9 11.1----30.14- 71.6- 56.7---
2024-07-19 02:36 pmENE 9.9 12.0----30.14- 72.3- 57.9---
2024-07-19 02:30 pmENE 8.9 11.1----30.14- 72.1- 58.1---
2024-07-19 02:24 pmENE 8.9 12.0----30.14- 72.0- 57.6---
2024-07-19 02:18 pm NE 9.9 12.0----30.14- 72.3- 58.3---
2024-07-19 02:12 pmENE 9.9 12.0----30.14- 72.1- 58.1---
2024-07-19 02:06 pmENE 8.9 12.0----30.15- 72.3- 58.1---
2024-07-19 02:00 pmENE 9.9 12.0----30.15-0.02 71.8- 56.5---
2024-07-19 01:54 pm E 8.9 12.0----30.15- 72.0- 56.5---
2024-07-19 01:48 pm E 8.9 13.0----30.15- 72.0- 56.1---
2024-07-19 01:42 pmENE 9.9 12.0----30.15- 72.0- 56.1---
2024-07-19 01:36 pm E 8.9 12.0----30.15- 71.8- 55.9---
2024-07-19 01:30 pm E 9.9 12.0----30.15- 71.6- 55.6---
2024-07-19 01:24 pmENE 8.9 12.0----30.15- 72.1- 56.1---
2024-07-19 01:18 pmENE 9.9 12.0----30.15- 71.8- 55.4---
2024-07-19 01:12 pmENE 9.9 12.0----30.16- 71.6- 55.8---
2024-07-19 01:06 pmENE 9.9 12.0----30.16- 71.8- 55.9---
2024-07-19 01:00 pmENE 8.9 11.1----30.16-0.01 71.6- 55.6---
2024-07-19 12:54 pmENE 8.0 11.1----30.16- 71.8- 55.9---
2024-07-19 12:48 pmENE 9.9 12.0----30.16- 71.4- 55.4---
2024-07-19 12:42 pmENE 9.9 12.0----30.16- 71.1- 55.0---
2024-07-19 12:36 pmENE 8.9 11.1----30.16- 71.6- 55.6---
2024-07-19 12:30 pm E 8.0 11.1----30.16- 71.8- 56.7---
2024-07-19 12:24 pmENE 8.9 11.1----30.16- 71.6- 56.1---
2024-07-19 12:18 pm E 8.0 11.1----30.17- 71.4- 56.3---
2024-07-19 12:12 pm E 8.0 11.1----30.17- 71.4- 55.9---
2024-07-19 12:06 pmENE 8.9 12.0----30.17- 70.9- 54.9---
2024-07-19 12:00 pmENE 8.0 11.1----30.17-0.01 71.1- 55.2---
2024-07-19 11:54 am E 8.0 11.1----30.17- 70.9- 54.5---
2024-07-19 11:48 amENE 8.9 9.9----30.17- 71.1- 54.5---
2024-07-19 11:42 amENE 7.0 9.9----30.17- 71.1- 54.7---
2024-07-19 11:36 amENE 7.0 9.9----30.17- 71.1- 54.3---
2024-07-19 11:30 amENE 8.0 9.9----30.17- 71.2- 54.0---
2024-07-19 11:24 am NE 8.0 8.9----30.17- 72.1- 55.0---
2024-07-19 11:18 am NE 7.0 8.9----30.17- 72.3- 55.2---
2024-07-19 11:12 am NE 7.0 8.9----30.17- 72.5- 55.0---
2024-07-19 11:06 am NE 7.0 8.9----30.17- 72.5- 55.0---
2024-07-19 11:00 am NE 7.0 8.9----30.17-0.02 72.3- 54.9---
2024-07-19 10:54 am NE 6.0 8.0----30.17- 72.7- 55.0---
2024-07-19 10:48 am NE 6.0 8.0----30.17- 72.7- 55.2---
2024-07-19 10:42 am NE 6.0 7.0----30.17- 72.3- 55.2---
2024-07-19 10:36 am NE 6.0 7.0----30.17- 72.3- 54.9---
2024-07-19 10:30 am NE 6.0 7.0----30.17- 72.5- 55.4---
2024-07-19 10:24 am NE 5.1 7.0----30.17- 72.7- 55.4---
2024-07-19 10:18 am NE 6.0 7.0----30.17- 72.7- 55.9---
2024-07-19 10:12 am NE 5.1 7.0----30.17- 72.0- 55.6---
2024-07-19 10:06 am NE 5.1 6.0----30.17- 72.5- 55.4---
2024-07-19 10:00 am NE 5.1 6.0----30.17-0.01 72.9- 55.8---
2024-07-19 09:54 am NE 5.1 6.0----30.18- 72.0- 55.9---
2024-07-19 09:48 am NE 5.1 6.0----30.18- 72.5- 55.8---
2024-07-19 09:42 am NE 5.1 6.0----30.18- 72.3- 56.3---
2024-07-19 09:36 am NE 1.9 6.0----30.18- 72.1- 54.5---
2024-07-19 09:30 am NE 5.1 6.0----30.18- 72.3- 55.6---
2024-07-19 09:24 am- 0.0 4.1----30.18- 72.9- 53.1---
2024-07-19 09:18 am NW 1.9 4.1----30.18- 72.1- 51.8---
2024-07-19 09:12 am N 1.9 2.9----30.18- 72.9- 52.3---
2024-07-19 09:06 am NW 1.9 2.9----30.18- 71.8- 52.7---
2024-07-19 09:00 amWNW 2.9 4.1----30.18+0.00 71.4- 52.2---
2024-07-19 08:54 amWNW 1.9 4.1----30.18- 71.4- 52.7---
2024-07-19 08:48 am W 1.0 2.9----30.19- 71.8- 54.5---
2024-07-19 08:42 amNNW 1.0 4.1----30.19- 71.2- 54.9---
2024-07-19 08:36 am W 1.0 2.9----30.19- 70.5- 54.0---
2024-07-19 08:30 am W 1.9 4.1----30.19- 70.5- 54.3---
2024-07-19 08:24 amWSW 2.9 4.1----30.19- 69.4- 54.1---
2024-07-19 08:18 amWSW 2.9 4.1----30.19- 69.4- 55.6---
2024-07-19 08:12 am W 1.0 4.1----30.19- 69.1- 55.9---
2024-07-19 08:06 am W 2.9 5.1----30.19- 68.2- 55.2---
2024-07-19 08:00 am W 1.9 4.1----30.19+0.02 68.5- 56.1---
2024-07-19 07:54 am W 1.9 5.1----30.19- 68.0- 56.5---